Location: Cz?stochówka
(50.8142°N, 19.0915°E)
Time: 03:58:22
(UTC+00:00)

Lacrosse 5 rocket - Visible Passes

Search period start: 21 April 2026 00:00
Search period end: 01 May 2026 00:00
Orbit: 390 x 477 km, 57.0° (Epoch: 20 April)

Date Brightness Start Highest point End Pass type
(mag) Time Alt. Az. Time Alt. Az. Time Alt. Az.
21 Apr 2.5 19:22:01 10° NW 19:24:49 27° N 19:27:28 11° ENE visible
21 Apr 2.1 20:58:38 10° NW 21:00:44 37° NW 21:00:44 37° NW visible
22 Apr 2.6 18:39:23 10° WNW 18:42:08 26° N 18:44:53 10° ENE visible
22 Apr 1.1 20:16:07 10° NW 20:19:14 51° NNE 20:19:32 49° NE visible
23 Apr 1.7 19:33:33 10° NW 19:36:34 39° NNE 19:38:19 21° E visible
23 Apr 2.8 21:10:11 10° WNW 21:11:34 22° W 21:11:34 22° W visible
24 Apr 2.0 18:50:56 10° NW 18:53:52 32° NNE 18:56:47 10° E visible
24 Apr 0.9 20:27:30 10° WNW 20:30:19 60° WSW 20:30:19 60° WSW visible
25 Apr 0.6 19:44:50 10° WNW 19:48:01 83° NNE 19:49:04 39° ESE visible
25 Apr 3.6 21:22:12 10° W 21:22:19 10° W 21:22:19 10° W visible
26 Apr 1.0 19:02:09 10° NW 19:05:19 58° NNE 19:07:48 15° ESE visible
26 Apr 2.5 20:39:04 10° WNW 20:41:03 22° WSW 20:41:03 22° WSW visible
27 Apr 1.6 19:56:08 10° WNW 19:59:05 36° SW 19:59:46 31° SSW visible
28 Apr 1.0 19:13:16 10° WNW 19:16:24 55° SW 19:18:30 19° SE visible
29 Apr 3.1 20:08:09 10° W 20:09:45 13° SW 20:10:29 12° SW visible
30 Apr 2.7 19:24:41 10° W 19:27:06 20° SW 19:29:14 11° S visible
